Skip Page Navigation
NASA JPL Caltech
NASA Logo - Jet Propulsion Laboratory + View the NASA Portal
+ Center for Near-Earth Object Studies
JPL Home Earth Solar System Stars & Galaxies Technology
JPL Solar System Dynamics
BODIES ORBITS EPHEMERIDES TOOLS PHYSICAL DATA DISCOVERY FAQ SITE MAP
IMPORTANT: The SSD Announcement email list is now available. Major changes are coming in the near future, including possible hostname and/or URL changes. To be notified of such changes, subscribe to this email list.

Please visit this page for more details.


JPL Small-Body Database Browser
Search: [ help ]  
65190 (2002 CV247)
Classification: Main-belt Asteroid          SPK-ID: 2065190
Ephemeris | Orbit Diagram | Orbital Elements | Mission Design | Physical Parameters | Discovery Circumstances | Close-Approach Data ]

[ show orbit diagram ]
Orbital Elements at Epoch 2458600.5 (2019-Apr-27.0) TDB
Reference: JPL 28 (heliocentric ecliptic J2000)
 Element Value Uncertainty (1-sigma)   Units 
e .354584612951612 6.3694e-08  
a 2.90830783408578 1.4109e-08 au
q 1.877066626392333 1.8053e-07 au
i 10.30144271775851 6.5088e-06 deg
node 173.1579608054954 1.8328e-05 deg
peri 149.7551452570965 1.9301e-05 deg
M 56.2794842297065 5.0593e-06 deg
tp 2458317.291297353553
(2018-Jul-17.79129735)
2.4497e-05 TDB
period 1811.586128554195
4.96
1.3182e-05
3.609e-08
d
yr
n .1987208857065557 1.446e-09 deg/d
Q 3.939549041779228 1.9111e-08 au
  Orbit Determination Parameters
   # obs. used (total)      1319  
   data-arc span      8716 days (23.86 yr)  
   first obs. used      1996-01-14  
   last obs. used      2019-11-25  
   planetary ephem.      DE431  
   SB-pert. ephem.      SB431-N16  
   condition code      0  
   norm. resid. RMS      .47509  
   source      ORB  
   producer      Otto Matic  
   solution date      2019-Dec-14 06:55:44  

Additional Information
 Earth MOID = .872594 au 
 Jupiter MOID = 1.50239 au 
 T_jup = 3.165 
[ show covariance matrix ]

Ephemeris | Orbit Diagram | Orbital Elements | Mission Design | Physical Parameters | Discovery Circumstances | Close-Approach Data ]

Physical Parameter Table
Parameter Symbol Value Units Sigma Reference Notes
absolute magnitude H 13.9   n/a MPO453046  

65190 (2002 CV247)          Discovered 2002-Feb-15 by LINEAR at Socorro
Reference: 20030614/Numbers.arcLast Updated: 2004-04-19

[ show close-approach data ]
Alternate Designations
 2002 CV247 = 1998 MA12 
Ephemeris | Orbit Diagram | Orbital Elements | Mission Design | Physical Parameters | Discovery Circumstances | Close-Approach Data ]
ABOUT SSD CREDITS/AWARDS PRIVACY/COPYRIGHT GLOSSARY LINKS
FirstGov 2020-Jan-28 21:02 UT
(server date/time)  
NASA Home Page
Site Manager:   Ryan S. Park
Webmaster  Alan B. Chamberlin